Regional Weather Roundup
Issued by NWS

Home | Current Version | Previous Version | Text Only | Print | Product List | Glossary On
Versions: 1 2 3 4 5 6 7 8 9 10 11 12 13 14 15 16 17 18 19 20 21 22 23 24 25 26 27 28 29 30 31 32 33 34 35 36 37 38 39 40 41 42 43 44 45 46 47 48 49 50
864
ASUS44 KLIX 220110
RWRLA
LOUISIANA WEATHER ROUNDUP
NATIONAL WEATHER SERVICE NEW ORLEANS LA
700 PM CST SUN DEC 21 2014

NOTE: "FAIR" INDICATES FEW OR NO CLOUDS BELOW 12,000 FEET WITH NO
      SIGNIFICANT WEATHER AND/OR OBSTRUCTIONS TO VISIBILITY.
      SKY/WX - SKY CONDITION AND SIGNIFICANT WEATHER.
      TMP - AIR TEMPERATURE.    DP   - DEWPOINT TEMPERATURE.
      RH  - RELATIVE HUMIDITY.  PRES - PRESSURE.
      HX  - HEAT INDEX.         WCI  - WIND CHILL INDEX.

*  THESE STATIONS ARE NOT NWS OR FAA STATIONS AND ARE NOT UNDER
   NWS QUALITY CONTROL.

LAZ040-048-061>063-065-066-069-220200-
SOUTHEAST LOUISIANA

CITY           SKY/WX    TMP DP  RH WIND       PRES   REMARKS
N.O. AUDUBON     N/A     56  53  90 MISG        N/A
N.O. INTL ARPT CLOUDY    55  51  86 E7        29.98F FOG
N.O. LAKEFRONT CLOUDY    56  51  84 E7        29.99F
N.O. DOWNTOWN* FAIR      55  48  76 NE3       29.98F
SLIDELL        CLOUDY    51  49  92 CALM      29.99S
BATON ROUGE    MOCLDY    54  50  86 NE6       29.97S
BOOTHVILLE     CLOUDY    56  55  97 NE6       29.98F FOG
BELLE CHASSE   CLOUDY    55  53  93 E8        29.98S
BOGALUSA*        N/A     56  51  81 E6        30.01S
GALLIANO*      CLOUDY    57  55  91 MISG      29.98S
NEW ROADS*     MOCLDY    52  50  93 NW3       29.98R
GONZALES*      CLOUDY    54  54 100 CALM      29.97F
HAMMOND*       NOT AVBL
HOUMA*         CLOUDY    53  52  95 E3        29.97S
PORT FOURCHON* CLOUDY    59  55  88 E12       29.99F

$$

LAZ041-044-053-054-220200-
SOUTHWEST LOUISIANA

CITY           SKY/WX    TMP DP  RH WIND       PRES   REMARKS
LAKE CHARLES   CLOUDY    52  49  89 N3        29.98S
LAFAYETTE      CLOUDY    53  50  89 NW3       29.98S
PATTERSON      PTCLDY    52  50  93 CALM      29.97F
SALT POINT       N/A     55  51  86 CALM      29.95F
NEW IBERIA     CLOUDY    53  51  93 NW3       29.97S FOG
CHENAULT AIRPK CLOUDY    52  48  87 NE3       29.99R FOG

$$

LAZ027-028-220200-
CENTRAL LOUISIANA

CITY           SKY/WX    TMP DP  RH WIND       PRES   REMARKS
FORT POLK      CLOUDY    50  49  93 S10       29.95F
ALEXANDRIA INT CLOUDY    50  48  93 SE9       29.96R
ALEXANDRIA     CLOUDY    49  47  93 S5        29.97F

$$

LAZ001-002-220200-
NORTHWEST LOUISIANA

CITY           SKY/WX    TMP DP  RH WIND       PRES   REMARKS
SHREVEPORT     PTCLDY    50  45  83 S8        29.90F
BARKSDALE AFB  NOT AVBL
DTN SHREVEPORT PTCLDY    51  43  74 SE9       29.90F

$$

LAZ014-016-220200-
NORTHEAST LOUISIANA

CITY           SKY/WX    TMP DP  RH WIND       PRES   REMARKS
MONROE         CLEAR     49  46  90 CALM      29.96F
TALLULAH       CLEAR     49  45  86 SE7       29.97F

$$




USA.gov is the U.S. government's official web portal to all federal, state and local government web resources and services.